Groton, CT

8:02 PM EDT on May 25, 2017 (GMT -0400)
Groton-New London

Weather History for KGON - January, 2013

Change the Weather History Date:

Thursday, January 17, 2013

  Actual Average Record
Temperature  
Mean Temperature 38 °F -  
Max Temperature 44 °F 36 °F 56 °F (1973)
Min Temperature 33 °F 16 °F -6 °F (1965)
Degree Days  
Heating Degree Days 26    
Moisture  
Dew Point 28 °F    
Average Humidity 69    
Maximum Humidity 93    
Minimum Humidity 48    
Precipitation  
Precipitation 0.00 in - - ()
Sea Level Pressure  
Sea Level Pressure 30.00 in    
Wind  
Wind Speed 7 mph (NW)    
Max Wind Speed 17 mph    
Max Gust Speed 22 mph    
Visibility 9 miles    
Events      
Averages and records for this station are not official NWS values.
T = Trace of Precipitation, MM = Missing Value Source: NWS Daily Summary

Daily Weather History Graph

Daily Weather History Graph

Search for Another Location

Airport or City:

Trip Planner

Search our weather history database for the weather conditions in past years. The results will help you decide how hot, cold, wet, or windy it might be!

Date:

Astronomy

Jan. 17, 2013 Rise Set
Actual Time 7:10 AM EST 4:46 PM EST
Civil Twilight 6:40 AM EST 5:16 PM EST
Nautical Twilight 6:06 AM EST 5:50 PM EST
Astronomical Twilight 5:33 AM EST 6:23 PM EST
Moon 10:11 AM EST (1/17) 11:40 PM EST (1/17)
Length of Visible Light 10h 36m
Length of Day
9h 35m
Waxing Crescent, 37% of the Moon is Illuminated
Jan 17
Waxing Crescent
Jan 18
First Quarter
Jan 26
Full
Feb 3
Last Quarter
Feb 10
New

Hourly Weather History & Observations

Time (EST) Temp. Windchill Dew Point Humidity Pressure Visibility Wind Dir Wind Speed Gust Speed Precip Events Conditions
12:56 AM 36.0 °F 32.1 °F 34.0 °F 93% 29.90 in 7.0 mi West 4.6 mph - N/A   Clear
1:56 AM 36.0 °F 32.1 °F 34.0 °F 93% 29.88 in 7.0 mi WNW 4.6 mph - N/A   Clear
2:56 AM 36.0 °F 31.1 °F 34.0 °F 93% 29.89 in 8.0 mi West 5.8 mph - N/A   Clear
3:56 AM 37.0 °F 32.4 °F 33.1 °F 86% 29.91 in 8.0 mi West 5.8 mph - N/A   Clear
4:56 AM 37.9 °F 32.1 °F 33.1 °F 83% 29.89 in 9.0 mi West 8.1 mph - N/A   Clear
5:56 AM 37.9 °F 32.7 °F 32.0 °F 79% 29.91 in 10.0 mi West 6.9 mph - N/A   Clear
6:56 AM 36.0 °F 33.3 °F 32.0 °F 86% 29.94 in 10.0 mi West 3.5 mph - N/A   Clear
7:56 AM 37.0 °F 33.3 °F 32.0 °F 82% 29.98 in 8.0 mi West 4.6 mph - N/A   Clear
8:56 AM 37.9 °F 31.5 °F 30.9 °F 76% 30.02 in 8.0 mi West 9.2 mph - N/A   Clear
9:56 AM 39.0 °F 34.8 °F 30.9 °F 73% 30.03 in 9.0 mi West 5.8 mph - N/A   Clear
10:56 AM 41.0 °F 37.1 °F 30.0 °F 65% 30.01 in 8.0 mi NW 5.8 mph - N/A   Clear
11:56 AM 42.1 °F 34.9 °F 30.0 °F 62% 30.00 in 9.0 mi West 13.8 mph 20.7 mph N/A   Clear
12:56 PM 42.1 °F 34.5 °F 28.9 °F 60% 30.01 in 9.0 mi NW 15.0 mph 19.6 mph N/A   Clear
1:56 PM 44.1 °F 37.1 °F 28.0 °F 53% 30.01 in 10.0 mi NNW 15.0 mph 20.7 mph N/A   Partly Cloudy
2:56 PM 43.0 °F 36.0 °F 27.0 °F 53% 30.02 in 10.0 mi NNW 13.8 mph - N/A   Clear
3:56 PM 42.1 °F 37.7 °F 27.0 °F 55% 30.03 in 10.0 mi North 6.9 mph - N/A   Clear
4:56 PM 39.9 °F 35.8 °F 28.0 °F 63% 30.06 in 10.0 mi NNW 5.8 mph - N/A   Clear
5:56 PM 39.0 °F 35.7 °F 27.0 °F 62% 30.07 in 10.0 mi NNW 4.6 mph - N/A   Clear
6:56 PM 37.9 °F 33.5 °F 28.0 °F 68% 30.09 in 10.0 mi NNW 5.8 mph - N/A   Overcast
7:56 PM 37.0 °F 28.9 °F 24.1 °F 59% 30.07 in 10.0 mi North 12.7 mph - N/A   Overcast
8:56 PM 36.0 °F 28.5 °F 21.9 °F 57% 30.08 in 10.0 mi NNW 10.4 mph - N/A   Overcast
9:56 PM 35.1 °F 26.4 °F 17.1 °F 48% 30.07 in 10.0 mi North 12.7 mph 20.7 mph N/A   Overcast
10:56 PM 33.1 °F 22.2 °F 15.1 °F 48% 29.99 in 10.0 mi North 17.3 mph 21.9 mph 0.00 in   Overcast
11:56 PM 33.1 °F 26.9 °F 15.1 °F 48% 30.06 in 10.0 mi North 6.9 mph - N/A   Overcast